TimeCST,TemperatureF,Dew PointF,Humidity,Sea Level PressureIn,VisibilityMPH,Wind Direction,Wind SpeedMPH,Gust SpeedMPH,PrecipitationIn,Events,Conditions,WindDirDegrees,DateUTC
12:52 AM,24.8,19.4,80,30.23,9.0,WNW,5.8,-,N/A,,Clear,290,2013-01-03 06:52:00
1:52 AM,21.0,18.0,88,30.27,7.0,NNW,4.6,-,N/A,,Clear,330,2013-01-03 07:52:00
2:52 AM,24.1,19.9,84,30.29,6.0,WNW,3.5,-,N/A,,Clear,300,2013-01-03 08:52:00
3:52 AM,21.0,19.0,92,30.31,6.0,WSW,3.5,-,N/A,,Clear,250,2013-01-03 09:52:00
4:52 AM,21.9,19.9,92,30.32,6.0,West,3.5,-,N/A,,Overcast,260,2013-01-03 10:52:00
5:52 AM,23.0,19.9,88,30.35,7.0,SW,4.6,-,N/A,,Scattered Clouds,230,2013-01-03 11:52:00
6:52 AM,21.0,18.0,88,30.37,6.0,Calm,Calm,-,N/A,,Clear,0,2013-01-03 12:52:00
7:52 AM,19.9,18.0,92,30.39,4.0,Calm,Calm,-,N/A,,Clear,0,2013-01-03 13:52:00
8:52 AM,27.0,23.0,85,30.40,6.0,West,3.5,-,N/A,,Clear,270,2013-01-03 14:52:00
9:52 AM,30.9,25.0,79,30.43,8.0,WNW,4.6,-,N/A,,Clear,300,2013-01-03 15:52:00
10:52 AM,36.0,26.1,67,30.43,10.0,Variable,3.5,-,N/A,,Clear,0,2013-01-03 16:52:00
11:52 AM,37.0,24.1,59,30.41,10.0,Calm,Calm,-,N/A,,Clear,0,2013-01-03 17:52:00
12:52 PM,39.9,21.9,49,30.38,10.0,WNW,8.1,-,N/A,,Clear,290,2013-01-03 18:52:00
1:52 PM,39.9,21.0,47,30.37,10.0,NW,8.1,-,N/A,,Clear,320,2013-01-03 19:52:00
2:52 PM,39.9,21.9,49,30.37,10.0,NW,5.8,-,N/A,,Clear,310,2013-01-03 20:52:00
3:52 PM,39.0,23.0,53,30.38,10.0,NNW,10.4,-,N/A,,Scattered Clouds,330,2013-01-03 21:52:00
4:52 PM,37.0,21.9,54,30.40,10.0,WNW,6.9,-,N/A,,Partly Cloudy,290,2013-01-03 22:52:00
5:52 PM,28.9,21.0,72,30.42,10.0,WSW,4.6,-,N/A,,Clear,250,2013-01-03 23:52:00
6:52 PM,27.0,19.9,75,30.43,10.0,SSW,4.6,-,N/A,,Scattered Clouds,210,2013-01-04 00:52:00
7:52 PM,28.0,21.9,78,30.43,10.0,WSW,3.5,-,N/A,,Overcast,240,2013-01-04 01:52:00
8:52 PM,28.9,23.0,78,30.42,10.0,WSW,3.5,-,N/A,,Overcast,240,2013-01-04 02:52:00
9:52 PM,32.0,24.1,73,30.42,10.0,WNW,3.5,-,N/A,,Overcast,300,2013-01-04 03:52:00
10:52 PM,30.9,25.0,79,30.42,10.0,Calm,Calm,-,N/A,,Overcast,0,2013-01-04 04:52:00
11:52 PM,30.2,26.6,86,30.38,10.0,WNW,4.6,-,N/A,,Overcast,300,2013-01-04 05:52:00